Fort Lauderdale, FL

3:38 AM EST on February 08, 2016 (GMT -0500)
Fort Lauderdale Executive

Weather History for KFXE - May, 2013

Change the Weather History Date:

Sunday, May 26, 2013

  Actual Average Record
Temperature  
Mean Temperature 80 °F -  
Max Temperature 84 °F 87 °F 93 °F (1972)
Min Temperature 75 °F 70 °F 60 °F (1977)
Cooling Degree Days 14    
Growing Degree Days 30 (Base 50)    
Moisture  
Dew Point 63 °F    
Average Humidity 59    
Maximum Humidity 71    
Minimum Humidity 49    
Precipitation  
Precipitation 0.00 in - - ()
Sea Level Pressure  
Sea Level Pressure 30.15 in    
Wind  
Wind Speed 9 mph (ENE)    
Max Wind Speed 17 mph    
Max Gust Speed 22 mph    
Visibility 10 miles    
Events      
Averages and records for this station are not official NWS values.
T = Trace of Precipitation, MM = Missing Value Source: NWS Daily Summary

Daily Weather History Graph

Daily Weather History Graph

Search for Another Location

Airport or City:

Trip Planner

Search our weather history database for the weather conditions in past years. The results will help you decide how hot, cold, wet, or windy it might be!

Date:

Astronomy

May. 26, 2013 Rise Set
Actual Time 6:29 AM EDT 8:06 PM EDT
Civil Twilight 6:04 AM EDT 8:31 PM EDT
Nautical Twilight 5:33 AM EDT 9:02 PM EDT
Astronomical Twilight 5:01 AM EDT 9:34 PM EDT
Moon 9:54 PM EDT (5/26) 7:55 AM EDT (5/26)
Length of Visible Light 14h 27m
Length of Day
13h 36m
Waning Gibbous, 97% of the Moon is Illuminated
May 26
Waning Gibbous
May 31
Last Quarter
Jun 8
New
Jun 16
First Quarter
Jun 23
Full

Hourly Weather History & Observations

Time (EDT) Temp. Heat Index Dew Point Humidity Pressure Visibility Wind Dir Wind Speed Gust Speed Precip Events Conditions
12:53 AM 77.0 °F - 63.0 °F 62% 30.16 in 10.0 mi ENE 8.1 mph - N/A   Partly Cloudy
1:53 AM 77.0 °F - 61.0 °F 58% 30.16 in 10.0 mi ENE 6.9 mph - N/A   Clear
2:53 AM 75.9 °F - 61.0 °F 60% 30.13 in 10.0 mi NE 5.8 mph - N/A   Partly Cloudy
3:53 AM 75.0 °F - 62.1 °F 64% 30.12 in 10.0 mi NE 3.5 mph - N/A   Clear
4:53 AM 75.9 °F - 64.0 °F 67% 30.12 in 10.0 mi NE 6.9 mph - N/A   Partly Cloudy
5:53 AM 75.0 °F - 64.9 °F 71% 30.12 in 10.0 mi NNE 4.6 mph - N/A   Scattered Clouds
6:53 AM 75.9 °F - 64.0 °F 67% 30.13 in 10.0 mi ENE 9.2 mph - N/A   Scattered Clouds
7:53 AM 78.1 °F - 64.0 °F 62% 30.14 in 10.0 mi East 11.5 mph - N/A   Scattered Clouds
8:53 AM 80.1 °F 81.7 °F 64.0 °F 58% 30.16 in 10.0 mi ENE 9.2 mph - N/A   Scattered Clouds
9:53 AM 82.0 °F 83.4 °F 64.0 °F 54% 30.16 in 10.0 mi ENE 10.4 mph - N/A   Scattered Clouds
10:53 AM 82.0 °F 83.4 °F 64.0 °F 54% 30.17 in 10.0 mi ENE 17.3 mph 21.9 mph N/A   Partly Cloudy
11:53 AM 82.9 °F 84.6 °F 64.9 °F 54% 30.19 in 10.0 mi East 12.7 mph - N/A   Scattered Clouds
12:53 PM 84.0 °F 84.9 °F 63.0 °F 49% 30.19 in 10.0 mi East 11.5 mph 20.7 mph N/A   Scattered Clouds
1:53 PM 84.0 °F 84.9 °F 63.0 °F 49% 30.17 in 10.0 mi East 16.1 mph 21.9 mph N/A   Scattered Clouds
2:53 PM 84.0 °F 84.9 °F 63.0 °F 49% 30.16 in 10.0 mi ENE 12.7 mph 20.7 mph N/A   Mostly Cloudy
3:53 PM 82.9 °F 84.4 °F 64.0 °F 53% 30.14 in 10.0 mi NE 13.8 mph 21.9 mph N/A   Scattered Clouds
4:53 PM 82.9 °F 84.4 °F 64.0 °F 53% 30.13 in 10.0 mi NE 13.8 mph 21.9 mph N/A   Scattered Clouds
5:53 PM 81.0 °F 82.5 °F 64.0 °F 56% 30.13 in 10.0 mi NE 11.5 mph 20.7 mph N/A   Partly Cloudy
6:53 PM 79.0 °F - 64.0 °F 60% 30.12 in 10.0 mi NE 12.7 mph 19.6 mph N/A   Scattered Clouds
7:53 PM 78.1 °F - 63.0 °F 60% 30.13 in 10.0 mi NE 13.8 mph 20.7 mph N/A   Mostly Cloudy
8:53 PM 78.1 °F - 64.0 °F 62% 30.14 in 10.0 mi ENE 11.5 mph 20.7 mph N/A   Partly Cloudy
9:53 PM 77.0 °F - 63.0 °F 62% 30.15 in 10.0 mi ENE 9.2 mph 18.4 mph N/A   Scattered Clouds
10:53 PM 78.1 °F - 62.1 °F 58% 30.16 in 10.0 mi ENE 13.8 mph 19.6 mph N/A   Scattered Clouds
11:53 PM 77.0 °F - 63.0 °F 62% 30.16 in 10.0 mi East 12.7 mph - N/A   Clear